Starlink 6174

operational
NORAD ID: 57366 Int'l Des: 2023-099 Owner: SPXS Country: US Constellation: starlink
LEOCIRCULAR

About Starlink 6174

Description loading...

Live Position

Loading 3D Globe...

Upcoming Passes

Altitude History

Altitude vs Time

uPlot chart will show altitude changes over time

Two-Line Element Set

1 57366U 23099AQ 26048.79165071 -.00000045 00000-0 11753-4 0 9997
2 57366 43.0047 344.0411 0001248 265.7221 94.3479 15.02533887143279
Epoch: Feb 17, 2026 • Age: 6 hours

Current Status

Altitude 560.7 km
Velocity 7.58 km/s
Sub-Earth Point -11.00°S, 16.9°E
Launch Date Jul 16, 2023
Age 2.5 years
Type internet

Technical Details

Classification Payload
Mass 305.00 kg
Dry Mass 290.00 kg
Total Mass 305.00 kg
Length 0.20 m
Diameter 2.80 m
Span 9.00 m
Shape Box + pan
Manufacturer SPXS
Bus Type Starlink
Phase Status In Orbit
Owner/State SPXS/US

Large Constellations

Loading constellations...